IRNSS-1I

Last updated on Fri Oct 04 2024 00:02:41 GMT+0000 (Coordinated Universal Time)

1 43286U 18035A 24277.04912406 .00000111 00000+0 00000+0 0 9999 2 43286 29.3595 83.9242 0020531 179.7025 181.5316 1.00278960 23843
UTC large
Height (km)
Speed (km/s)
/
Latitude / Longitude
Inclination (degrees)
Orbital Period (minutes)
Azimuth
Elevation
Range (km)
Doppler Factor

Next 0 passes for location: London (51.5072 / 0.1276)

Sorry there are no passes over London.